アトラス彗星

C/2022 L2 ( ATLAS )

English version
Home page
Updated on March 23, 2025

---------------------------------------------------------------------

・ プロフィール

発見日 2022年6月10日
発見光度 18.4等
発見者 Asteroid Terrestrial-Impact Last Alert System (ATLAS) search program

・ 写真集

・ 軌道要素

Epoch 2024 Oct. 17.0 TT = JDT 2460600.5
T 2024 Mar. 12.23890 TT                                 Rudenko
q   2.6927452            (2000.0)            P               Q
z  -0.0004311      Peri.  199.91206     -0.86469164     -0.11303964
 +/-0.0000005      Node    39.24041     -0.28753611     +0.91030882
e   1.0011607      Incl.  129.31344     -0.41186328     -0.39819580
From 2835 observations 2022 May 20-2024 Nov. 12, mean residual 0".9.

・ 星図

・ 光度変化

        m1 = 10.0 + 5 logΔ + 5.0 log r  [ ,0]  (              〜2024年 3月12日)
        m1 =  8.3 + 5 logΔ + 9.0 log r  [0, ]  (2024年 3月12日〜              )

---------------------------------------------------------------------

軌道要素はM.P.E.C. 2024-V192に掲載されたものです。
星図はステラナビゲータ Ver.10 (アストロアーツ) で作成したものです。
光度グラフはComet for Windowsで作成したものです。

---------------------------------------------------------------------

Copyright(C) Seiichi Yoshida (comet@aerith.net). All rights reserved.